DECAYED

STARLINK-1320, 45572 (Decayed)

Orbit data source: Space-Track

STARLINK-1320, 45572 was a payload satellite owned by SpaceX/Seattle (US) in LEO that was launched on Wed, 22 Apr 2020 UTC via an FALCON 9 launch vehicle from the Air Force Eastern Test Range (AFETR). Payload-class satellites include a variety of spacecraft equipped with specific instruments for various scientific and technological missions. These include communications satellites like Starlink; space stations such as the ISS; scientific satellites like the Hubble; Earth observation satellites from companies like Planet Labs, Umbra, and HawkEye 360; GPS; miniature CubeSats for education and research; and military/defense satellites.

Not visible in the next 10 days
Identifier
45572, 2020-025AT
Orbit
Decayed
Country
Flag of USUS
Related business
Manufacturer
SpaceX/Seattle
Mission
Decayed Commercial Communications
Bus & Motor
STARLINK, Unknown motor
Mass
260 kg wet, ~248 kg dry
Launch date (UTC)
2020-04-22 (6 years ago)
Launch vehicle
FALCON 9
Launch site
Air Force Eastern Test Range (AFETR)
Object type
Payload
Rocket body
Debris
Shape & HBR
Box + 1 Pan, 10.1 m
Radar Cross Section
13.562 m², Large (>1 m²)

Expand to show TLE details & history
Last TLE update: 1 month ago

TLE from 1 month ago
0 STARLINK-1320
1 45572U 20025AT  26213.83149810  .08200503  12530-4  36427-3 0  9998
2 45572  53.0218 331.0894 0008749 308.5288  51.4975 16.42744970349836
Epoch: 2026-08-01T19:57Z
TLE epoch observation values (Epoch: 2026-08-01T19:57:21.435Z)
Latitude
0.00001°
Longitude
81.31243°
Altitude
155.881 km
Speed
7.816 km/s
True Right ascension
22h 04m 21s
True Declination
0° 00' 00"
Sunlit
Object was in full shadow at epoch
Visualization orbit readout
Latitude
Unknown
Longitude
Unknown
Altitude
Unknown
Speed
Unknown
Apparent Right ascension
Unknown
Apparent Declination
Unknown
Sunlit
N/A
Visualization observer readout
Local Sidereal Time
21:09:51
Azimuth
Unknown
Elevation
Unknown
Doppler factor
Unknown
Orbital elements
Apogee altitude
164.522 km
Perigee altitude
153.083 km
Semi-major axis
6,536.94 km
Eccentricity
0.00087
Inclination
53.0218°
RAAN
331.0894°
Arg. of periapsis
308.5288°
True anomaly
51.57601°
Mean anomaly
51.4975°
Eccentric anomaly
51.53675°
Mean motion
4.10659 °/min
Orbital period
87.66 mins
BSTAR
0.00036427
Loading maneuver chart data...
Computing Atmospheric mass density...

Documentation

Showing up to 5 results
|